Location: Home
(42.5358°N, 72.7383°W)
Time: 13:52:35
(UTC-05:00)

Vanguard 2 Rocket - Visible Passes

Search period start: 12 December 2025 00:00
Search period end: 22 December 2025 00:00
Orbit: 553 x 3287 km, 32.9° (Epoch: 11 December)

Date Brightness Start Highest point End Pass type
(mag) Time Alt. Az. Time Alt. Az. Time Alt. Az.
12 Dec 11.3 06:11:48 10° SSW 06:26:31 27° SE 06:39:13 10° E visible
13 Dec 11.3 05:08:28 10° S 05:20:10 19° SE 05:31:13 10° ESE visible
14 Dec 11.4 04:09:08 10° SSE 04:14:06 11° SE 04:19:04 10° ESE visible
14 Dec 11.0 06:12:19 10° SSW 06:28:43 34° SSE 06:43:01 10° E visible
15 Dec 11.1 05:08:04 10° S 05:22:13 26° SE 05:35:45 10° E visible
16 Dec 11.1 04:05:40 10° SSE 04:16:02 17° SE 04:26:36 10° E visible
16 Dec 10.8 06:13:26 10° SSW 06:30:52 40° SSE 06:46:24 10° E visible
17 Dec 10.9 05:08:38 10° SSW 05:24:10 32° SE 05:39:29 10° E visible
18 Dec 10.9 04:05:08 10° S 04:17:52 23° SE 04:31:19 10° E visible
18 Dec 10.5 06:15:00 10° SW 06:33:00 47° SSE 06:49:30 10° E visible
19 Dec 11.0 03:04:01 10° SSE 03:12:01 15° SE 03:20:36 10° ESE visible
19 Dec 10.6 05:09:50 10° SSW 05:26:07 39° SSE 05:42:46 10° E visible
20 Dec 10.7 04:05:43 10° SSW 04:19:39 30° SE 04:35:03 10° E visible
20 Dec 10.3 06:16:52 10° SW 06:35:08 53° SSE 06:52:26 10° E visible
21 Dec 10.7 03:03:04 10° S 03:13:42 20° SE 03:25:49 10° E visible
21 Dec 10.4 05:11:28 10° SW 05:28:05 45° SSE 05:45:44 10° E visible
